Location: Neuvy Saint Sepulchre
(46.5953°N, 1.8122°E)
Time: 22:28:31
(UTC+02:00)

ISS - Pass Details

Date: 01 April 2019
Orbit: 408 x 410 km, 51.6° (Epoch: 18 April)

Event Time Altitude Azimuth Distance (km) Brightness Sun altitude
Rises 23:20:58 0° 294° (WNW) 2,339 1.1 -28.3°
Reaches altitude 10° 23:23:06 10° 289° (WNW) 1,475 -0.2 -28.5°
Enters shadow 23:23:43 15° 286° (WNW) 1,229 -0.8 -28.6°
